O'Neill, NE

11:51 PM CDT on August 23, 2016 (GMT -0500)
The O'Neill Municipal-Baker

Weather History for KONL - August, 2012

Change the Weather History Date:

Tuesday, August 21, 2012

  Actual Average Record
Temperature  
Mean Temperature 73 °F -  
Max Temperature 93 °F 87 °F 100 °F (1968)
Min Temperature 54 °F 61 °F 45 °F (2016)
Cooling Degree Days 8    
Growing Degree Days 23 (Base 50)    
Moisture  
Dew Point 52 °F    
Average Humidity 52    
Maximum Humidity 91    
Minimum Humidity 21    
Precipitation  
Precipitation 0.00 in - - ()
Sea Level Pressure  
Sea Level Pressure 29.98 in    
Wind  
Wind Speed 7 mph (SE)    
Max Wind Speed 13 mph    
Max Gust Speed 18 mph    
Visibility 10 miles    
Events      
Averages and records for this station are not official NWS values.
T = Trace of Precipitation, MM = Missing Value Source: NWS Daily Summary

Daily Weather History Graph

Daily Weather History Graph

Search for Another Location

Airport or City:

Trip Planner

Search our weather history database for the weather conditions in past years. The results will help you decide how hot, cold, wet, or windy it might be!

Date:

Astronomy

Aug. 21, 2012 Rise Set
Actual Time 6:48 AM CDT 8:26 PM CDT
Civil Twilight 6:18 AM CDT 8:55 PM CDT
Nautical Twilight 5:42 AM CDT 9:31 PM CDT
Astronomical Twilight 5:04 AM CDT 10:09 PM CDT
Moon 11:28 AM CDT (8/21) 10:19 PM CDT (8/21)
Length of Visible Light 14h 36m
Length of Day
13h 37m
Waxing Crescent, 19% of the Moon is Illuminated
Aug 21
Waxing Crescent
Aug 24
First Quarter
Aug 31
Full
Sep 8
Last Quarter
Sep 15
New

Hourly Weather History & Observations

Time (CDT) Temp. Dew Point Humidity Pressure Visibility Wind Dir Wind Speed Gust Speed Precip Events Conditions
12:15 AM 60.4 °F 51.8 °F 73% 30.04 in 10.0 mi East 8.1 mph - N/A   Clear
12:35 AM 61.7 °F 52.7 °F 72% 30.04 in 10.0 mi ESE 6.9 mph - N/A   Clear
12:55 AM 60.8 °F 53.6 °F 77% 30.04 in 10.0 mi East 5.8 mph - N/A   Clear
1:15 AM 59.9 °F 53.1 °F 78% 30.05 in 10.0 mi East 6.9 mph - N/A   Clear
1:35 AM 61.3 °F 53.6 °F 76% 30.05 in 10.0 mi East 6.9 mph - N/A   Clear
1:55 AM 62.1 °F 53.6 °F 74% 30.04 in 10.0 mi ESE 9.2 mph - N/A   Clear
2:15 AM 61.9 °F 53.4 °F 74% 30.04 in 10.0 mi ESE 6.9 mph - N/A   Clear
2:35 AM 61.2 °F 53.4 °F 76% 30.04 in 10.0 mi ESE 5.8 mph - N/A   Clear
2:55 AM 60.8 °F 53.4 °F 77% 30.05 in 10.0 mi SE 6.9 mph - N/A   Clear
3:15 AM 59.4 °F 53.2 °F 80% 30.04 in 10.0 mi SE 5.8 mph - N/A   Clear
3:35 AM 58.5 °F 53.1 °F 82% 30.04 in 10.0 mi SE 4.6 mph - N/A   Clear
3:55 AM 57.7 °F 52.7 °F 83% 30.04 in 10.0 mi ESE 4.6 mph - N/A   Clear
4:15 AM 57.4 °F 52.7 °F 84% 30.04 in 10.0 mi SE 4.6 mph - N/A   Clear
4:35 AM 58.1 °F 52.9 °F 83% 30.03 in 10.0 mi SE 4.6 mph - N/A   Clear
4:55 AM 57.9 °F 52.9 °F 83% 30.02 in 10.0 mi SE 4.6 mph - N/A   Clear
5:15 AM 57.4 °F 52.9 °F 85% 30.02 in 10.0 mi SE 5.8 mph - N/A   Clear
5:35 AM 57.2 °F 52.7 °F 85% 30.02 in 10.0 mi SSE 5.8 mph - N/A   Clear
5:55 AM 55.6 °F 52.2 °F 88% 30.02 in 10.0 mi Calm Calm - N/A   Clear
6:15 AM 54.9 °F 51.8 °F 89% 30.02 in 10.0 mi SSE 3.5 mph - N/A   Clear
6:35 AM 55.0 °F 51.8 °F 89% 30.02 in 10.0 mi SSE 4.6 mph - N/A   Clear
6:55 AM 55.0 °F 52.0 °F 89% 30.02 in 10.0 mi SSE 4.6 mph - N/A   Clear
7:15 AM 54.7 °F 52.0 °F 91% 30.02 in 10.0 mi SSE 4.6 mph - N/A   Clear
7:35 AM 55.6 °F 52.7 °F 90% 30.02 in 10.0 mi SSE 3.5 mph - N/A   Clear
7:55 AM 57.4 °F 53.2 °F 86% 30.02 in 10.0 mi SSE 4.6 mph - N/A   Clear
8:15 AM 59.0 °F 53.6 °F 82% 30.02 in 10.0 mi South 5.8 mph - N/A   Clear
8:35 AM 60.8 °F 54.1 °F 79% 30.02 in 10.0 mi SSE 6.9 mph - N/A   Clear
8:55 AM 63.9 °F 54.5 °F 72% 30.02 in 10.0 mi SSE 8.1 mph - N/A   Clear
9:15 AM 66.4 °F 54.3 °F 65% 30.02 in 10.0 mi South 8.1 mph - N/A   Clear
9:35 AM 69.1 °F 54.3 °F 59% 30.01 in 10.0 mi SSE 8.1 mph - N/A   Clear
9:55 AM 71.1 °F 53.2 °F 53% 30.02 in 10.0 mi SSE 8.1 mph - N/A   Clear
10:15 AM 73.2 °F 52.9 °F 49% 30.02 in 10.0 mi SSE 6.9 mph - N/A   Clear
10:35 AM 73.9 °F 52.7 °F 47% 30.02 in 10.0 mi SSE 6.9 mph - N/A   Clear
10:55 AM 75.6 °F 52.3 °F 44% 30.02 in 10.0 mi SSE 6.9 mph - N/A   Clear
11:15 AM 77.2 °F 51.8 °F 41% 30.02 in 10.0 mi SE 5.8 mph - N/A   Clear
11:35 AM 79.0 °F 51.6 °F 38% 30.02 in 10.0 mi SE 5.8 mph - N/A   Clear
11:55 AM 80.4 °F 52.2 °F 37% 30.02 in 10.0 mi East 5.8 mph - N/A   Clear
12:15 PM 82.0 °F 51.1 °F 34% 30.02 in 10.0 mi SE 3.5 mph - N/A   Clear
12:35 PM 81.5 °F 52.2 °F 36% 30.01 in 10.0 mi East 9.2 mph - N/A   Clear
12:55 PM 84.4 °F 52.2 °F 33% 30.01 in 10.0 mi East 10.4 mph - N/A   Clear
1:15 PM 85.3 °F 50.4 °F 30% 30.00 in 10.0 mi ESE 6.9 mph - N/A   Clear
1:35 PM 86.4 °F 51.4 °F 30% 30.00 in 10.0 mi East 9.2 mph - N/A   Clear
1:55 PM 87.3 °F 51.6 °F 29% 30.00 in 10.0 mi SE 10.4 mph - N/A   Clear
2:15 PM 88.2 °F 51.4 °F 28% 29.99 in 10.0 mi ESE 8.1 mph - N/A   Clear
2:35 PM 89.1 °F 52.9 °F 29% 29.98 in 10.0 mi ESE 11.5 mph 16.1 mph N/A   Clear
2:55 PM 89.1 °F 52.9 °F 29% 29.97 in 10.0 mi SSE 10.4 mph - N/A   Clear
3:15 PM 91.2 °F 49.3 °F 24% 29.97 in 10.0 mi South 6.9 mph - N/A   Clear
3:35 PM 91.4 °F 48.9 °F 23% 29.95 in 10.0 mi SE 11.5 mph - N/A   Clear
3:55 PM 91.4 °F 48.7 °F 23% 29.95 in 10.0 mi ESE 5.8 mph - N/A   Clear
4:15 PM 91.8 °F 49.3 °F 23% 29.94 in 10.0 mi SSW 11.5 mph 18.4 mph N/A   Clear
4:35 PM 92.3 °F 48.4 °F 22% 29.93 in 10.0 mi South 5.8 mph 17.3 mph N/A   Clear
4:55 PM 92.7 °F 48.4 °F 22% 29.93 in 10.0 mi SSE 9.2 mph - N/A   Clear
5:15 PM 92.5 °F 46.9 °F 21% 29.93 in 10.0 mi SSW 8.1 mph - N/A   Clear
5:35 PM 92.5 °F 48.4 °F 22% 29.93 in 10.0 mi SSE 5.8 mph - N/A   Clear
5:55 PM 92.7 °F 48.7 °F 22% 29.92 in 10.0 mi South 11.5 mph - N/A   Clear
6:15 PM 92.1 °F 48.9 °F 23% 29.91 in 10.0 mi SSE 9.2 mph - N/A   Clear
6:35 PM 92.1 °F 49.5 °F 23% 29.91 in 10.0 mi SSE 10.4 mph - N/A   Clear
6:55 PM 91.2 °F 49.1 °F 24% 29.91 in 10.0 mi SSE 10.4 mph 16.1 mph N/A   Clear
7:15 PM 90.1 °F 49.3 °F 25% 29.90 in 10.0 mi SSE 12.7 mph - N/A   Clear
7:35 PM 89.1 °F 49.5 °F 26% 29.90 in 10.0 mi SSE 10.4 mph - N/A   Clear
7:55 PM 87.1 °F 50.7 °F 29% 29.90 in 10.0 mi SSE 9.2 mph - N/A   Clear
8:15 PM 84.4 °F 51.4 °F 32% 29.90 in 10.0 mi SSE 9.2 mph - N/A   Clear
8:35 PM 83.3 °F 51.4 °F 33% 29.90 in 10.0 mi SSE 10.4 mph - N/A   Clear
8:55 PM 82.0 °F 51.8 °F 35% 29.90 in 10.0 mi SSE 10.4 mph - N/A   Clear
9:15 PM 81.0 °F 52.0 °F 36% 29.91 in 10.0 mi South 10.4 mph - N/A   Clear
9:35 PM 79.5 °F 52.3 °F 39% 29.91 in 10.0 mi South 10.4 mph - N/A   Clear
9:55 PM 78.8 °F 51.8 °F 39% 29.91 in 10.0 mi South 9.2 mph - N/A   Clear
10:15 PM 77.7 °F 51.8 °F 40% 29.91 in 10.0 mi South 10.4 mph - N/A   Clear
10:35 PM 77.2 °F 51.8 °F 41% 29.92 in 10.0 mi South 9.2 mph - N/A   Clear
10:55 PM 76.3 °F 51.8 °F 42% 29.92 in 10.0 mi South 8.1 mph - N/A   Clear
11:15 PM 75.9 °F 52.0 °F 43% 29.92 in 10.0 mi South 8.1 mph - N/A   Clear
11:35 PM 75.7 °F 51.8 °F 43% 29.92 in 10.0 mi South 6.9 mph - N/A   Clear
11:55 PM 75.6 °F 51.1 °F 42% 29.92 in 10.0 mi South 11.5 mph - N/A   Clear